When you browse on this site, cookies collect data to enhance your experience and personalize the content and advertising you see.
Visit our Privacy Policy to learn more. By continuing to use the site, you agree to this use of cookies and data.
  • In Hungary
  • List of Countries
  • For 7 days
  • Water Temperature
  • Weather Map
  • News
  • Weather Widgets
  • user-avatar
    Login

    Hourly Weather Scandiano

    Today, 23 November, Saturday

    Time Temperature Precipitation Wind Pressure Humidity
    00:00 +11°C° 0 mm 1 mps 749 mmHg 90%
    01:00 +11°C° 0 mm 1 mps 749 mmHg 90%
    02:00 +10°C° 0.4 mm 2 mps 748 mmHg 91%
    03:00 +10°C° 0.4 mm 2 mps 748 mmHg 92%
    04:00 +10°C° 0.4 mm 2 mps 747 mmHg 93%
    05:00 +10°C° 0.3 mm 2 mps 747 mmHg 92%
    06:00 +10°C° 0.3 mm 2 mps 747 mmHg 92%
    07:00 +10°C° 0.3 mm 2 mps 747 mmHg 92%
    08:00 +11°C° 0.2 mm 3 mps 747 mmHg 90%
    09:00 +12°C° 0.2 mm 3 mps 747 mmHg 88%
    10:00 +12°C° 0.2 mm 3 mps 747 mmHg 86%
    11:00 +13°C° 0.2 mm 4 mps 746 mmHg 84%
    12:00 +13°C° 0.2 mm 4 mps 746 mmHg 82%
    13:00 +14°C° 0.2 mm 4 mps 746 mmHg 80%
    14:00 +13°C° 0.1 mm 4 mps 745 mmHg 81%
    15:00 +13°C° 0.1 mm 4 mps 745 mmHg 82%
    16:00 +13°C° 0.1 mm 4 mps 744 mmHg 83%
    17:00 +13°C° 0.5 mm 4 mps 744 mmHg 84%
    18:00 +12°C° 0.5 mm 4 mps 744 mmHg 84%
    19:00 +12°C° 0.5 mm 5 mps 744 mmHg 85%
    20:00 +12°C° 1.2 mm 5 mps 744 mmHg 86%
    21:00 +12°C° 1.2 mm 5 mps 744 mmHg 87%
    22:00 +12°C° 1.2 mm 5 mps 744 mmHg 88%
    23:00 +12°C° 0.8 mm 5 mps 744 mmHg 89%

    Tomorrow, 24 November, Sunday

    Time Temperature Precipitation Wind Pressure Humidity
    00:00 +12°C° 0.8 mm 5 mps 744 mmHg 89%
    01:00 +12°C° 0.8 mm 4 mps 744 mmHg 90%
    02:00 +12°C° 0.3 mm 4 mps 744 mmHg 90%
    03:00 +12°C° 0.3 mm 4 mps 744 mmHg 90%
    04:00 +12°C° 0.3 mm 3 mps 744 mmHg 90%
    05:00 +12°C° 0.1 mm 3 mps 744 mmHg 90%
    06:00 +13°C° 0.1 mm 2 mps 744 mmHg 90%
    07:00 +13°C° 0.1 mm 2 mps 745 mmHg 90%
    08:00 +13°C° 0 mm 2 mps 745 mmHg 90%
    09:00 +13°C° 0 mm 1 mps 745 mmHg 90%
    10:00 +14°C° 0 mm 1 mps 745 mmHg 90%
    11:00 +14°C° 0.1 mm 2 mps 745 mmHg 89%
    12:00 +15°C° 0.1 mm 2 mps 745 mmHg 87%
    13:00 +14°C° 0.1 mm 3 mps 745 mmHg 86%
    14:00 +14°C° 0.3 mm 3 mps 745 mmHg 88%
    15:00 +14°C° 0.3 mm 3 mps 745 mmHg 89%
    16:00 +14°C° 0.3 mm 4 mps 745 mmHg 91%
    17:00 +13°C° 0.3 mm 4 mps 745 mmHg 92%
    18:00 +13°C° 0.3 mm 4 mps 745 mmHg 93%
    19:00 +13°C° 0.3 mm 5 mps 745 mmHg 94%
    20:00 +13°C° 0.9 mm 4 mps 745 mmHg 95%
    21:00 +13°C° 0.9 mm 4 mps 746 mmHg 95%
    22:00 +13°C° 0.9 mm 4 mps 746 mmHg 96%
    23:00 +13°C° 0.4 mm 3 mps 746 mmHg 95%

    Day after tomorrow, 25 November, Monday

    Time Temperature Precipitation Wind Pressure Humidity
    00:00 +13°C° 0.4 mm 3 mps 746 mmHg 95%
    01:00 +14°C° 0.4 mm 2 mps 746 mmHg 94%
    02:00 +13°C° 0.1 mm 2 mps 746 mmHg 94%
    03:00 +13°C° 0.1 mm 2 mps 746 mmHg 94%
    04:00 +13°C° 0.1 mm 2 mps 746 mmHg 94%
    05:00 +13°C° 0 mm 2 mps 746 mmHg 94%
    06:00 +12°C° 0 mm 2 mps 746 mmHg 94%
    07:00 +12°C° 0 mm 2 mps 746 mmHg 94%
    08:00 +13°C° 0 mm 2 mps 747 mmHg 90%
    09:00 +14°C° 0 mm 2 mps 747 mmHg 86%
    10:00 +15°C° 0 mm 1 mps 747 mmHg 82%
    11:00 +15°C° 0 mm 2 mps 746 mmHg 80%
    12:00 +16°C° 0 mm 2 mps 746 mmHg 77%
    13:00 +17°C° 0 mm 2 mps 746 mmHg 74%
    14:00 +16°C° 0 mm 1 mps 746 mmHg 77%
    15:00 +16°C° 0 mm 1 mps 746 mmHg 80%
    16:00 +15°C° 0 mm 1 mps 746 mmHg 83%
    17:00 +14°C° 0 mm 1 mps 746 mmHg 84%
    18:00 +14°C° 0 mm 1 mps 746 mmHg 85%
    19:00 +13°C° 0 mm 1 mps 746 mmHg 86%
    20:00 +13°C° 0 mm 1 mps 746 mmHg 85%
    21:00 +13°C° 0 mm 1 mps 746 mmHg 85%
    22:00 +12°C° 0 mm 1 mps 747 mmHg 85%
    23:00 +12°C° 0 mm 1 mps 747 mmHg 85%

    26 November, Tuesday

    Time Temperature Precipitation Wind Pressure Humidity
    00:00 +12°C° 0 mm 1 mps 747 mmHg 85%
    01:00 +12°C° 0 mm 1 mps 746 mmHg 86%
    02:00 +11°C° 0 mm 0 mps 746 mmHg 86%
    03:00 +11°C° 0 mm 0 mps 746 mmHg 87%
    04:00 +10°C° 0 mm 0 mps 746 mmHg 87%
    05:00 +10°C° 0 mm 0 mps 746 mmHg 88%
    06:00 +10°C° 0 mm 0 mps 746 mmHg 89%
    07:00 +10°C° 0 mm 0 mps 747 mmHg 90%
    08:00 +11°C° 0 mm 0 mps 747 mmHg 88%
    09:00 +11°C° 0 mm 0 mps 747 mmHg 86%
    10:00 +13°C° 0 mm 1 mps 748 mmHg 83%
    11:00 +14°C° 0 mm 1 mps 748 mmHg 81%
    12:00 +15°C° 0 mm 1 mps 747 mmHg 80%
    13:00 +15°C° 0 mm 1 mps 747 mmHg 78%
    14:00 +15°C° 0 mm 1 mps 747 mmHg 80%
    15:00 +14°C° 0 mm 1 mps 747 mmHg 83%
    16:00 +14°C° 0 mm 1 mps 747 mmHg 85%
    17:00 +13°C° 0 mm 1 mps 748 mmHg 87%
    18:00 +12°C° 0 mm 0 mps 748 mmHg 88%
    19:00 +12°C° 0 mm 0 mps 749 mmHg 89%
    20:00 +11°C° 0 mm 0 mps 749 mmHg 89%
    21:00 +11°C° 0 mm 0 mps 749 mmHg 89%
    22:00 +11°C° 0 mm 0 mps 749 mmHg 89%
    23:00 +11°C° 0 mm 0 mps 749 mmHg 89%

    27 November, Wednesday

    Time Temperature Precipitation Wind Pressure Humidity
    00:00 +11°C° 0 mm 0 mps 749 mmHg 89%
    01:00 +11°C° 0 mm 0 mps 748 mmHg 89%
    02:00 +11°C° 0 mm 0 mps 748 mmHg 89%
    03:00 +11°C° 0 mm 0 mps 748 mmHg 90%
    04:00 +11°C° 0 mm 0 mps 748 mmHg 90%
    05:00 +11°C° 0 mm 0 mps 747 mmHg 90%
    06:00 +11°C° 0 mm 0 mps 747 mmHg 90%
    07:00 +11°C° 0 mm 0 mps 747 mmHg 90%
    08:00 +12°C° 0.1 mm 1 mps 747 mmHg 90%
    09:00 +12°C° 0.1 mm 1 mps 747 mmHg 89%
    10:00 +13°C° 0.1 mm 1 mps 747 mmHg 89%
    11:00 +13°C° 0.2 mm 1 mps 746 mmHg 89%
    12:00 +13°C° 0.2 mm 1 mps 745 mmHg 89%
    13:00 +13°C° 0.2 mm 1 mps 744 mmHg 89%
    14:00 +13°C° 0.6 mm 1 mps 744 mmHg 90%
    15:00 +13°C° 0.6 mm 1 mps 744 mmHg 92%
    16:00 +13°C° 0.6 mm 1 mps 744 mmHg 94%
    17:00 +12°C° 0.1 mm 1 mps 744 mmHg 94%
    18:00 +12°C° 0.1 mm 1 mps 744 mmHg 95%
    19:00 +12°C° 0.1 mm 1 mps 744 mmHg 95%
    20:00 +12°C° 0 mm 1 mps 744 mmHg 95%
    21:00 +11°C° 0 mm 0 mps 744 mmHg 95%
    22:00 +11°C° 0 mm 0 mps 744 mmHg 94%
    23:00 +11°C° 0 mm 0 mps 744 mmHg 95%

    28 November, Thursday

    Time Temperature Precipitation Wind Pressure Humidity
    00:00 +10°C° 0 mm 0 mps 744 mmHg 95%
    01:00 +10°C° 0 mm 0 mps 744 mmHg 95%
    02:00 +10°C° 0 mm 0 mps 744 mmHg 95%
    03:00 +10°C° 0 mm 0 mps 744 mmHg 95%
    04:00 +10°C° 0 mm 0 mps 744 mmHg 95%
    05:00 +10°C° 0 mm 0 mps 744 mmHg 95%
    06:00 +10°C° 0 mm 0 mps 745 mmHg 95%
    07:00 +11°C° 0 mm 1 mps 745 mmHg 95%
    08:00 +12°C° 0 mm 1 mps 745 mmHg 93%
    09:00 +12°C° 0 mm 1 mps 746 mmHg 91%
    10:00 +13°C° 0 mm 1 mps 746 mmHg 89%
    11:00 +13°C° 0 mm 1 mps 746 mmHg 87%
    12:00 +14°C° 0 mm 1 mps 746 mmHg 84%
    13:00 +14°C° 0 mm 1 mps 746 mmHg 82%
    14:00 +14°C° 0 mm 1 mps 746 mmHg 83%
    15:00 +13°C° 0 mm 1 mps 746 mmHg 84%
    16:00 +13°C° 0 mm 1 mps 746 mmHg 86%
    17:00 +12°C° 0 mm 1 mps 746 mmHg 87%
    18:00 +12°C° 0 mm 1 mps 747 mmHg 88%
    19:00 +11°C° 0 mm 1 mps 747 mmHg 90%
    20:00 +11°C° 0 mm 1 mps 747 mmHg 89%
    21:00 +11°C° 0 mm 1 mps 748 mmHg 88%
    22:00 +10°C° 0 mm 1 mps 748 mmHg 88%
    23:00 +10°C° 0 mm 1 mps 749 mmHg 86%
    Show more